Regional Weather Roundup
Issued by NWS New Orleans/Baton Rouge, LA

Home | Current Version | Previous Version | Graphics & Text | Print | Product List | Glossary On
Versions: 1 2 3 4 5 6 7 8 9 10 11 12 13 14 15 16 17 18 19 20 21 22 23 24 25 26 27 28 29 30 31 32 33 34 35 36 37 38 39 40 41 42 43 44 45 46 47 48 49 50
790
ASUS44 KLIX 192010
RWRLIX
NEW ORLEANS REGIONAL WEATHER ROUNDUP
NATIONAL WEATHER SERVICE NEW ORLEANS LA
200 PM CST FRI DEC 19 2014

NOTE: "FAIR" INDICATES FEW OR NO CLOUDS BELOW 12,000 FEET WITH NO
      SIGNIFICANT WEATHER AND/OR OBSTRUCTIONS TO VISIBILITY.
      SKY/WX - SKY CONDITION AND SIGNIFICANT WEATHER.
      TMP - AIR TEMPERATURE.     DP    - DEWPOINT TEMPERATURE.
      RH  - RELATIVE HUMIDITY.   PRES  - PRESSURE.
      HI  - HEAT INDEX.          WCI   - WIND CHILL INDEX.

*  THESE STATIONS ARE NOT NWS OR FAA STATIONS AND ARE NOT UNDER
   NWS QUALITY CONTROL.

LAZ038-040-048-061>063-065>067-069-192100-
SOUTHEAST LOUISIANA

CITY           SKY/WX    TMP DP  RH WIND       PRES   REMARKS
N.O. AUDUBON   NOT AVBL
N.O. INTL ARPT LGT RAIN  54  52  93 E10       30.05F FOG
N.O. LAKEFRONT RAIN      55  51  86 E14       30.07F FOG
N.O. DOWNTOWN* CLOUDY    54  48  82 E7        30.06F
SLIDELL        RAIN      50  48  93 N5        30.09R FOG
BATON ROUGE    LGT RAIN  53  51  93 NE8       30.06F
BOOTHVILLE     LGT RAIN  60  59  96 SE5       30.03F FOG
BELLE CHASSE   RAIN      54  53  97 NE10      30.05F FOG
BOGALUSA*      RAIN      49  45  87 NE5       30.12R
GALLIANO*      DRIZZLE   56  56  97 MISG      30.04F
NEW ROADS*     LGT RAIN  51  50  95 NE9       30.06F
GONZALES*      DRIZZLE   57  57 100 NE6       30.04S
HAMMOND*       NOT AVBL
HOUMA*         CLOUDY    55  55 100 E9        30.02F FOG
PORT FOURCHON* CLOUDY    63  61  94 E8G14     30.05F FOG

$$

MSZ070-080>082-192100-
SOUTHERN MISSISSIPPI

CITY           SKY/WX    TMP DP  RH WIND       PRES   REMARKS
MCCOMB         RAIN      46  42  86 E6        30.11S FOG
GULFPORT       RAIN      51  49  92 NE6       30.07S
BILOXI         LGT RAIN  52  52 100 NE7       30.08R
PASCAGOULA     LGT RAIN  52  50  93 NE7       30.06F FOG
STENNIS ARPT*  RAIN      50  46  87 NW5       30.10R VSB 1

$$

COASTAL OBSERVATIONS
LAKE AND NEARSHORE STATIONS

STATION/POSITION TIME  TEMP    WIND        PRES    WAVE
                       AIR SEA DIR/SP/G            HT/PER
                 (UTC) (F)     (DEG/KT/KT) (MB)    (FT/S)
PASCAGOULA       2000   55      30/  6/  8 1017.4
WAVELAND YACHT   2000   51      30/  4/  5 1017.6
GRAND ISLE       2000   60 62  100/  7/ 12 1017.0
SOUTHWEST PASS   2000   62                 1017.0
NEW CANAL        2000   53 57   80/  7/ 14 1018.0
SHELL BEACH      2000   54 59   70/ 11/ 13 1017.5

OFFSHORE STATIONS

STATION/POSITION TIME  TEMP    WIND        PRES    WAVE
                       AIR SEA DIR/SP/G            HT/PER
                 (UTC) (F)     (DEG/KT/KT) (MB)    (FT/S)
64 S DAUPHIN ISL 2000   67 74  110/ 23/ 27 1016.0    5/ 5

$$




USA.gov is the U.S. government's official web portal to all federal, state and local government web resources and services.